Weather in Pokrovka

Russia / Orenburg Oblast     53°46′51″N   53°19′22″E
temp.,
°C
wind,
m/s
gust,
m/s
humid.,
%
clouds,
%
prec.,
mm/h
press.,
hPa
HPBL,
m
1 march, mon
mon123:00−18nnw339681 0.0 101035
02:00−18nnw239571 0.0 101344
05:00−19nw229669 0.0 101420
08:00−18nw229489 0.0 101626
11:00−18nw239356 0.0 1018131
14:00−15nw238930 0.0 1019321
17:00−14nw359265 0.0 1020408
20:00−19wnw2210090 0.0 102120
2 march, tue
tue223:00−22wsw2210062 0.0 102120
02:00−23wsw3310042 0.0 102027
05:00−23ssw4610062 0.0 101893
08:00−18ssw5109899 0.1 1015248
11:00−15ssw71295100 0.3 1012350
14:00−10ssw81393100 0.8 1009574
17:00−7ssw81394100 1.4 1006643
20:00−4ssw71496100 1.1 1003597
3 march, wed
wed323:00−3sw81396100 3.2 1001636
02:00−2wsw5997100 1.0 1000400
05:00−3w5896100 1.4 1001401
08:00−5w4796100 0.1 1001281
11:00−6w4697100 0.1 1002261
14:00−6wsw3597100 0.0 1003274
17:00−4w469699 0.1 1003440
20:00−5w3796100 0.1 1003344
4 march, thu
thu423:00−10wnw349597 0.3 100549
02:00−10wnw479780 0.1 1005183
05:00−13w369884 0.1 100799
08:00−15wsw4510094 0.0 100780
11:00−12wsw599697 0.1 1008269
14:00−8sw61094100 0.2 1008412
17:00−7sw71194100 0.4 1007557
20:00−7ssw81693100 0.3 1005668
5 march, fri
fri523:00−4sw91695100 1.3 1003896
02:00−2sw111896100 2.3 10001004
05:00−2sw121895100 3.8 9981029
08:00−2wsw121895100 1.2 999981
11:00−1wsw111795100 2.3 10021171
14:00−4w7138170 0.3 1006834
17:00−6w488835 0.3 1010426
20:00−11w34941 0.0 101224